DW5499 Weather Reports


time (UTC)temp
F
wind
direction
speed
knots
gust
knots
rain 1hr
in
rain 24hr
in
rain mn
in
humidity
%
barometer
mb
20260905174515 94 117 1.7 5.2 0.00 0.00 0.00 56 1013.6
20260905173012 92 36 2.6 4.3 0.00 0.00 0.00 61 1013.8
20260905171509 92 101 1.7 3.5 0.00 0.00 0.00 62 1013.9
20260905170009 89 72 2.6 4.3 0.00 0.00 0.00 66 1014.1
20260905164513 90 27 1.7 4.3 0.00 0.00 0.00 64 1014.2
20260905163005 91 146 1.7 4.3 0.00 0.00 0.00 61 1014.0
20260905161506 89 78 0.9 4.3 0.00 0.00 0.00 63 1014.1
20260905160100 89 72 2.6 4.3 0.00 0.00 0.00 64 1014.0
20260905154608 88 95 1.7 4.3 0.00 0.00 0.00 63 1013.8
20260905153054 87 81 0.9 3.5 0.00 0.00 0.00 64 1013.7
20260905151551 86 213 0.9 3.5 0.00 0.00 0.00 66 1013.6
20260905150051 85 120 0.9 2.6 0.00 0.00 0.00 70 1013.6
20260905144546 84 43 0.0 1.7 0.00 0.00 0.00 68 1013.5
20260905143042 83 139 0.0 2.6 0.00 0.00 0.00 73 1013.4
20260905141541 80 92 0.0 1.7 0.00 0.00 0.00 78 1013.5
20260905140040 79 126 0.9 2.6 0.00 0.00 0.00 79 1013.5
20260905134539 78 122 0.9 2.6 0.00 0.00 0.00 79 1013.5
20260905133039 78 128 0.0 1.7 0.00 0.00 0.00 82 1013.3
20260905131536 77 128 0.9 1.7 0.00 0.00 0.00 83 1013.1
20260905130036 76 76 0.9 2.6 0.00 0.00 0.00 84 1012.9
20260905124534 75 133 0.9 1.7 0.00 0.00 0.00 86 1012.9
20260905123032 75 99 0.0 1.7 0.00 0.00 0.00 88 1012.6
20260905121531 74 137 0.0 0.9 0.00 0.00 0.00 89 1012.7
20260905120032 74 97 0.0 2.6 0.00 0.00 0.00 89 1012.5
20260905114529 75 141 0.0 1.7 0.00 0.00 0.00 89 1012.1
20260905113029 74 141 0.0 0.0 0.00 0.00 0.00 88 1012.1
20260905111527 75 141 0.0 0.9 0.00 0.00 0.00 88 1012.0
20260905110027 75 141 0.0 0.0 0.00 0.00 0.00 88 1012.0
20260905104525 75 141 0.0 0.0 0.00 0.00 0.00 88 1011.8
20260905103024 75 141 0.0 1.7 0.00 0.00 0.00 88 1011.8
20260905101528 75 141 0.0 2.6 0.00 0.00 0.00 87 1011.7
20260905100051 75 141 0.0 1.7 0.00 0.00 0.00 87 1011.6
20260905094521 76 141 0.0 0.0 0.00 0.00 0.00 87 1011.7
20260905093020 76 141 0.0 1.7 0.00 0.00 0.00 87 1011.8
20260905091518 76 141 0.0 0.9 0.00 0.00 0.00 86 1011.9
20260905090018 77 141 0.0 1.7 0.00 0.00 0.00 86 1011.9
20260905084516 76 141 0.0 0.0 0.00 0.00 0.00 86 1011.8
20260905083016 77 141 0.0 0.0 0.00 0.00 0.00 86 1011.8
20260905081514 77 141 0.0 1.7 0.00 0.00 0.00 86 1011.8
20260905080014 78 141 0.0 1.7 0.00 0.00 0.00 85 1011.7
20260905074520 78 141 0.0 0.9 0.00 0.00 0.00 83 1011.7
20260905073011 78 141 0.0 0.0 0.00 0.00 0.00 84 1011.8
20260905071508 78 141 0.0 0.9 0.00 0.00 0.00 85 1011.7
20260905070006 79 141 0.0 1.7 0.00 0.00 0.00 85 1011.9
20260905064506 79 122 0.0 1.7 0.00 0.00 0.00 83 1012.0
20260905063004 79 13 0.0 0.9 0.00 0.00 0.00 82 1012.0
20260905061503 79 13 0.0 0.0 0.00 0.00 0.00 84 1012.1
20260905060003 80 13 0.0 0.0 0.00 0.00 0.00 84 1012.1
20260905054708 80 13 0.0 0.9 0.00 0.00 0.00 84 1011.9
20260905053058 80 13 0.0 1.7 0.00 0.00 0.00 83 1011.9
20260905051554 81 13 0.9 2.6 0.00 0.00 0.00 79 1011.9
20260905050051 82 145 0.0 1.7 0.00 0.00 0.00 76 1011.9
20260905044604 82 345 0.0 0.9 0.00 0.00 0.00 79 1011.9
20260905043054 82 345 0.9 3.5 0.00 0.00 0.00 77 1011.9
20260905041550 83 110 0.0 0.9 0.00 0.00 0.00 74 1011.9
20260905040059 84 103 0.0 0.9 0.00 0.00 0.00 73 1011.8
20260905034600 84 103 0.0 0.9 0.00 0.00 0.00 72 1011.9
20260905033050 86 103 0.0 1.7 0.00 0.00 0.00 71 1011.7
20260905031550 87 103 0.0 1.7 0.00 0.00 0.00 69 1011.6
20260905030048 88 102 0.0 2.6 0.00 0.00 0.00 66 1011.5
20260905024557 88 160 0.9 2.6 0.00 0.00 0.00 63 1011.3
20260905023047 89 166 0.0 2.6 0.00 0.00 0.00 66 1011.1
20260905021546 88 166 0.0 1.7 0.00 0.00 0.00 66 1011.0
20260905020053 89 166 0.0 2.6 0.00 0.00 0.00 63 1010.8
20260905014545 90 193 0.0 2.6 0.00 0.00 0.00 62 1010.7
20260905013045 91 246 0.9 2.6 0.00 0.00 0.00 59 1010.5
20260905011544 92 185 1.7 3.5 0.00 0.00 0.00 56 1010.4
20260905010044 94 162 0.9 4.3 0.00 0.00 0.00 53 1010.2
20260905004543 94 177 0.0 3.5 0.00 0.00 0.00 52 1010.2
20260905003043 95 185 1.7 3.5 0.00 0.00 0.00 50 1010.3
20260905001543 97 173 0.9 4.3 0.00 0.00 0.00 47 1010.3
20260905000042 98 159 2.6 4.3 0.00 0.00 0.00 46 1010.3
20260904234540 98 122 1.7 5.2 0.00 0.00 0.00 45 1010.4
20260904233040 98 160 2.6 7.0 0.00 0.00 0.00 45 1010.4
20260904231557 99 180 1.7 8.7 0.00 0.00 0.00 44 1010.5
20260904230039 98 167 2.6 7.8 0.00 0.00 0.00 44 1010.6
20260904224538 99 183 4.3 9.6 0.00 0.00 0.00 44 1010.5
20260904223039 99 162 4.3 10.4 0.00 0.00 0.00 44 1010.5
20260904221545 98 149 4.3 8.7 0.00 0.00 0.00 43 1010.4
20260904220038 98 191 6.1 10.4 0.00 0.00 0.00 43 1010.6
20260904214536 98 174 7.0 12.2 0.00 0.00 0.00 43 1010.6
20260904213036 98 143 4.3 10.4 0.00 0.00 0.00 44 1010.6
20260904211534 98 167 3.5 9.6 0.00 0.00 0.00 44 1010.9
20260904210036 97 175 2.6 10.4 0.00 0.00 0.00 46 1010.9
20260904204534 98 212 6.1 10.4 0.00 0.00 0.00 44 1011.0
20260904203040 97 168 7.0 12.2 0.00 0.00 0.00 46 1011.2
20260904201530 97 196 5.2 10.4 0.00 0.00 0.00 45 1011.3
20260904200050 96 146 1.7 8.7 0.00 0.00 0.00 46 1011.5
20260904194532 97 161 4.3 10.4 0.00 0.00 0.00 46 1011.7
20260904193027 95 120 4.3 11.3 0.00 0.00 0.00 47 1011.8
20260904191532 95 168 4.3 12.2 0.00 0.00 0.00 48 1011.9
20260904190024 94 113 7.0 12.2 0.00 0.00 0.00 48 1012.0
20260904184521 94 184 6.1 13.0 0.00 0.00 0.00 48 1012.2
20260904183019 94 218 4.3 10.4 0.00 0.00 0.00 50 1012.1
20260904181520 92 252 7.0 14.8 0.00 0.00 0.00 51 1012.2
20260904180026 92 167 8.7 14.8 0.00 0.00 0.00 50 1012.3